Location: Seattle
(47.6064°N, 122.3308°W)
Time: 15:32:18
(UTC-07:00)

S-56A Canister/Altair - Pass Details

Date: 04 August 2021
Orbit: 632 x 2500 km, 38.9° (Epoch: 15 September)

Event Time Altitude Azimuth Distance (km) Brightness Sun altitude
Rises 22:34:32 0° 279° (W) 6,177 13.0 -16.1°
Reaches altitude 10° 22:42:12 10° 256° (WSW) 5,024 12.0 -17.0°
Maximum altitude 22:47:08 13° 236° (SW) 4,622 11.5 -17.5°
Drops below altitude 10° 22:51:45 10° 214° (SW) 4,610 11.3 -17.9°
Enters shadow 22:56:58 - 193° (SSW) 5,046 11.3 -18.4°
